1483866000.64,5747,3.38,72594.5,-13.53,-46.83,-47.85,0,*52
1483866001.88,5748,3.38,72598.0,-13.53,-47.51,-48.55,0,*51
1483866003.14,5749,3.31,72590.3,-13.55,-46.61,-47.79,0,*55
1483866004.37,5750,3.31,72582.0,-13.57,-47.57,-48.49,0,*57
1483866005.63,5751,3.31,72572.3,-13.59,-46.15,-47.03,0,*5E
1483866006.9,5752,3.38,72572.8,-13.57,-45.41,-46.27,0,*56
1483866008.16,5753,3.31,72566.3,-13.57,-45.61,-46.61,0,*57
1483866009.43,5754,3.31,72584.0,-13.57,-45.61,-46.41,0,*52
1483866010.72,5755,3.31,72586.8,-13.57,-45.47,-46.41,0,*57
1483866011.96,5756,3.38,72588.3,-13.55,-45.61,-46.41,0,*52
1483866013.19,5757,3.31,72588.0,-13.55,-45.67,-46.49,0,*5D
1483866014.43,5758,3.31,72588.3,-13.53,-45.61,-46.75,0,*5D
1483866015.69,5759,3.38,72586.0,-13.55,-46.89,-47.79,0,*52
1483866016.93,5760,3.31,72580.8,-13.55,-46.01,-46.89,0,*56
1483866018.17,5761,3.38,72588.5,-13.55,-45.61,-46.49,0,*5E
1483866019.39,5762,3.31,72590.3,-13.55,-46.41,-47.17,0,*56
1483866020.63,5763,3.31,72590.5,-13.55,-46.49,-47.31,0,*5B
1483866021.86,5764,3.38,72598.5,-13.53,-45.41,-46.35,0,*54
1483866023.1,5765,3.38,72602.5,-13.55,-45.67,-46.49,0,*5C
1483866024.34,5766,3.31,72592.0,-13.55,-45.61,-46.49,0,*59
1483866025.58,5767,3.31,72590.0,-13.53,-45.61,-46.35,0,*55
1483866026.82,5768,3.38,72596.3,-13.53,-45.53,-46.35,0,*5B
1483866028.1,5769,3.31,72588.8,-13.53,-47.03,-47.93,0,*50
1483866029.31,5770,3.38,72576.3,-13.55,-45.61,-46.55,0,*53
1483866030.54,5771,3.38,72590.3,-13.55,-45.61,-46.61,0,*55
1483866031.84,5772,3.31,72592.8,-13.53,-45.27,-46.15,0,*51
1483866033.08,5773,3.38,72590.8,-13.53,-45.95,-46.83,0,*56
1483866034.35,5774,3.38,72592.5,-13.49,-45.81,-46.61,0,*53
1483866035.58,5775,3.38,72588.0,-13.53,-45.33,-46.21,0,*54
1483866036.85,5776,3.38,72598.3,-13.53,-45.33,-46.15,0,*50
1483866038.08,5777,3.38,72598.5,-13.53,-46.21,-47.09,0,*5D
1483866039.36,5778,3.38,72598.8,-13.49,-46.41,-47.23,0,*57
1483866040.64,5779,3.31,72600.8,-13.49,-46.15,-47.03,0,*55
1483866041.91,5780,3.31,72602.3,-13.49,-46.01,-46.89,0,*55
1483866043.15,5781,3.31,72602.5,-13.47,-45.53,-46.49,0,*52
1483866044.41,5782,3.31,72600.0,-13.47,-45.47,-46.49,0,*54
1483866045.68,5783,3.31,72606.3,-13.49,-45.33,-46.15,0,*51
1483866046.94,5784,3.31,72606.8,-13.47,-46.15,-47.03,0,*59
1483866048.19,5785,3.38,72612.0,-13.49,-45.73,-46.75,0,*55
1483866049.48,5786,3.38,72606.5,-13.49,-46.15,-46.89,0,*56
1483866050.75,5787,3.38,72608.5,-13.49,-44.73,-45.61,0,*50
1483866052.01,5788,3.38,72608.8,-13.47,-46.27,-47.03,0,*54
1483866053.24,5789,3.38,72604.3,-13.47,-46.69,-47.65,0,*5F
1483866054.48,5790,3.38,72596.0,-13.47,-47.03,-47.85,0,*54
1483866055.72,5791,3.38,72586.0,-13.47,-46.15,-46.83,0,*54
1483866057.02,5792,3.38,72582.8,-13.49,-45.27,-46.15,0,*54
1483866058.3,5793,3.38,72580.5,-13.47,-45.27,-46.07,0,*58
1483866059.54,5794,3.38,72582.0,-13.47,-45.53,-46.49,0,*56
1483866060.76,5795,3.38,72570.8,-13.47,-45.87,-46.83,0,*58
1483866062.0,5796,3.38,72574.3,-13.47,-45.07,-45.95,0,*57
1483866063.24,5797,3.31,72570.0,-13.47,-44.87,-45.73,0,*57
1483866064.48,5798,3.38,72570.0,-13.43,-44.67,-45.53,0,*50
1483866065.72,5799,3.38,72580.8,-13.45,-44.87,-45.67,0,*5E
1483866066.95,5800,3.31,72574.0,-13.43,-45.87,-46.69,0,*5B
1483866068.18,5801,3.38,72596.5,-13.43,-45.33,-46.27,0,*5F
1483866069.44,5802,3.31,72588.8,-13.45,-46.69,-47.57,0,*50
1483866070.68,5803,3.38,72602.5,-13.45,-45.95,-46.83,0,*59
1483866071.91,5804,3.38,72602.5,-13.43,-46.75,-47.45,0,*5E
1483866073.12,5805,3.31,72602.0,-13.43,-45.87,-46.83,0,*5A
1483866074.35,5806,3.38,72606.3,-13.43,-45.95,-46.69,0,*5E
1483866075.62,5807,3.38,72598.5,-13.41,-46.27,-47.31,0,*5B
1483866076.86,5808,3.31,72594.3,-13.45,-45.95,-46.83,0,*52
1483866078.13,5809,3.38,72582.5,-13.45,-45.53,-46.27,0,*57
1483866079.37,5810,3.38,72596.8,-13.43,-45.27,-45.95,0,*50
1483866080.65,5811,3.31,72586.5,-13.41,-45.81,-46.69,0,*5F
1483866081.89,5812,3.38,72590.8,-13.41,-46.21,-47.17,0,*5D
1483866083.11,5813,3.38,72592.8,-13.43,-46.61,-47.57,0,*5E
1483866084.33,5814,3.31,72590.8,-13.43,-47.17,-48.07,0,*53
1483866085.53,5815,3.31,72596.3,-13.43,-46.83,-47.57,0,*54
1483866086.77,5816,3.38,72594.5,-13.43,-46.75,-47.79,0,*52
1483866088.0,5817,3.38,72592.8,-13.45,-45.87,-46.75,0,*56
1483866089.3,5818,3.31,72594.3,-13.45,-45.27,-46.15,0,*55
1483866090.56,5819,3.38,72596.0,-13.45,-46.15,-47.17,0,*55
1483866091.79,5820,3.38,72598.8,-13.43,-45.73,-46.55,0,*5D
1483866093.06,5821,3.38,72596.8,-13.45,-46.07,-46.83,0,*51
1483866094.27,5822,3.38,72600.8,-13.43,-45.53,-46.35,0,*5B
1483866095.52,5823,3.38,72600.0,-13.43,-45.21,-46.07,0,*5E
1483866096.75,5824,3.31,72600.0,-13.41,-45.41,-46.21,0,*59
1483866098.02,5825,3.38,72600.8,-13.41,-45.41,-46.27,0,*5E
1483866099.28,5826,3.31,72596.5,-13.41,-46.01,-46.89,0,*5E
1483866100.55,5827,3.38,72598.0,-13.41,-45.67,-46.49,0,*50
1483866101.79,5828,3.38,72604.0,-13.37,-45.95,-46.83,0,*55
1483866103.05,5829,3.38,72606.3,-13.41,-46.97,-47.93,0,*54
1483866104.29,5830,3.38,72602.3,-13.41,-46.01,-46.97,0,*56
1483866105.53,5831,3.38,72610.8,-13.41,-46.01,-47.09,0,*51
1483866106.77,5832,3.38,72618.5,-13.43,-46.35,-47.23,0,*5F
1483866108.0,5833,3.38,72614.5,-13.43,-45.67,-46.27,0,*5F
1483866109.24,5834,3.38,72598.5,-13.43,-45.33,-46.15,0,*58
1483866110.47,5835,3.38,72592.8,-13.43,-46.69,-47.57,0,*52
1483866111.7,5836,3.38,72590.8,-13.43,-45.67,-46.49,0,*52
1483866112.94,5837,3.38,72592.5,-13.41,-45.41,-46.21,0,*5B
1483866114.21,5838,3.31,72598.8,-13.41,-45.21,-46.07,0,*56
1483866115.47,5839,3.38,72596.3,-13.37,-44.67,-45.41,0,*54
1483866116.73,5840,3.38,72606.0,-13.37,-44.47,-45.13,0,*5F
1483866117.94,5841,3.38,72610.3,-13.35,-45.95,-46.97,0,*5D
1483866119.22,5842,3.38,72608.5,-13.37,-47.23,-48.35,0,*55
1483866120.51,5843,3.38,72608.0,-13.41,-46.89,-47.71,0,*5B
1483866121.77,5844,3.38,72606.8,-13.41,-46.49,-47.51,0,*52
1483866123.04,5845,3.38,72590.0,-13.41,-46.49,-47.51,0,*53
1483866124.3,5846,3.38,72570.3,-13.41,-46.97,-47.71,0,*51
1483866125.59,5847,3.38,72568.5,-13.41,-46.49,-47.37,0,*51
1483866126.83,5848,3.38,72576.0,-13.43,-46.07,-46.75,0,*51
1483866128.07,5849,3.38,72582.5,-13.43,-45.21,-46.07,0,*52
1483866129.36,5850,3.31,72580.0,-13.41,-45.47,-46.27,0,*5A
1483866130.62,5851,3.38,72586.0,-13.37,-45.95,-47.03,0,*52
1483866131.87,5852,3.38,72596.3,-13.37,-45.21,-46.01,0,*5D
1483866133.14,5853,3.38,72602.0,-13.37,-45.73,-46.61,0,*5D
1483866134.4,5854,3.38,72598.3,-13.37,-45.33,-46.15,0,*5D
1483866135.66,5855,3.38,72606.5,-13.41,-46.41,-47.31,0,*5C
1483866136.89,5856,3.38,72592.0,-13.37,-46.83,-47.65,0,*51
1483866138.16,5857,3.38,72584.8,-13.37,-46.01,-46.89,0,*59
1483866139.42,5858,3.38,72588.8,-13.41,-45.61,-46.41,0,*56
1483866140.68,5859,3.38,72592.3,-13.41,-45.67,-46.41,0,*51
1483866141.95,5860,3.38,72592.3,-13.37,-45.53,-46.41,0,*5D
1483866143.19,5861,3.38,72590.3,-13.37,-45.53,-46.55,0,*59
1483866144.44,5862,3.31,72590.0,-13.37,-45.95,-46.89,0,*51
1483866145.7,5863,3.38,72594.8,-13.37,-46.69,-47.51,0,*54
1483866146.95,5864,3.38,72590.0,-13.41,-47.31,-48.21,0,*56
1483866148.22,5865,3.38,72590.0,-13.41,-46.27,-47.31,0,*5F
1483866149.45,5866,3.38,72590.5,-13.41,-47.57,-48.49,0,*5A
1483866150.71,5867,3.31,72588.3,-13.41,-46.75,-47.71,0,*5E
1483866151.97,5868,3.38,72598.5,-13.43,-46.69,-47.45,0,*59
1483866153.23,5869,3.38,72604.5,-13.43,-46.69,-47.45,0,*58
1483866154.46,5870,3.38,72610.5,-13.43,-46.27,-47.17,0,*5D
1483866155.7,5871,3.38,72612.5,-13.43,-45.53,-46.49,0,*56
1483866156.94,5872,3.38,72614.0,-13.43,-45.67,-46.69,0,*50
1483866158.19,5873,3.38,72592.5,-13.43,-46.07,-47.03,0,*59
1483866159.45,5874,3.38,72590.0,-13.43,-46.15,-47.03,0,*5D
1483866160.71,5875,3.38,72594.3,-13.41,-46.01,-46.89,0,*58
1483866161.98,5876,3.38,72592.0,-13.41,-46.07,-46.97,0,*52
1483866163.22,5877,3.38,72592.8,-13.41,-46.01,-46.75,0,*59
1483866164.46,5878,3.31,72592.3,-13.41,-45.67,-46.75,0,*55
1483866165.74,5879,3.38,72592.8,-13.41,-45.47,-46.41,0,*51
1483866167.01,5880,3.38,72590.0,-13.41,-46.27,-47.09,0,*5F
1483866168.27,5881,3.38,72586.0,-13.37,-45.53,-46.41,0,*52
1483866169.55,5882,3.38,72588.5,-13.41,-45.27,-46.21,0,*55
1483866170.78,5883,3.38,72584.5,-13.37,-45.33,-46.21,0,*50
1483866172.04,5884,3.38,72588.5,-13.37,-45.07,-45.95,0,*5C
1483866173.32,5885,3.38,72584.3,-13.37,-45.73,-46.69,0,*5E
1483866174.57,5886,3.38,72584.3,-13.37,-45.73,-46.55,0,*52
1483866175.83,5887,3.31,72582.8,-13.37,-45.53,-46.61,0,*56
1483866177.08,5888,3.38,72586.0,-13.37,-45.13,-46.01,0,*5B
1483866178.34,5889,3.38,72580.8,-13.37,-45.33,-46.07,0,*5E
1483866179.58,5890,3.38,72588.0,-13.35,-45.07,-45.95,0,*5B
1483866180.79,5891,3.38,72592.0,-13.35,-45.13,-45.95,0,*5F
1483866182.06,5892,3.38,72592.0,-13.35,-45.27,-46.07,0,*53
1483866183.33,5893,3.38,72592.8,-13.33,-44.61,-45.47,0,*50
1483866184.59,5894,3.38,72586.0,-13.33,-44.47,-45.33,0,*50
1483866185.85,5895,3.38,72584.0,-13.29,-45.07,-45.87,0,*50
1483866187.1,5896,3.38,72604.0,-13.29,-45.21,-46.01,0,*5A
1483866188.36,5897,3.38,72598.8,-13.29,-46.07,-47.09,0,*55
1483866189.62,5898,3.38,72596.0,-13.33,-45.47,-46.35,0,*58
1483866190.87,5899,3.38,72592.0,-13.29,-44.79,-45.61,0,*5C
1483866192.12,5900,3.38,72588.0,-13.29,-44.79,-45.61,0,*5D
1483866193.36,5901,3.38,72586.3,-13.33,-44.99,-45.87,0,*51
1483866194.63,5902,3.31,72590.0,-13.27,-44.33,-45.27,0,*5D
1483866195.87,5903,3.38,72588.5,-13.27,-44.99,-45.81,0,*50
1483866197.11,5904,3.38,72590.0,-13.25,-44.99,-45.67,0,*5D
1483866198.38,5905,3.38,72592.3,-13.25,-45.07,-45.87,0,*54
1483866199.64,5906,3.38,72606.5,-13.25,-45.07,-45.87,0,*57
1483866200.86,5907,3.38,72604.8,-13.23,-46.01,-46.83,0,*52
1483866202.09,5908,3.38,72604.0,-13.23,-46.69,-47.65,0,*5A
1483866203.35,5909,3.38,72616.0,-13.25,-46.07,-46.97,0,*59
1483866204.64,5910,3.38,72616.0,-13.25,-46.49,-47.37,0,*50
1483866205.88,5911,3.38,72614.8,-13.25,-47.09,-47.99,0,*50
1483866207.11,5912,3.38,72618.0,-13.27,-46.41,-47.17,0,*5A
1483866208.34,5913,3.38,72618.5,-13.27,-45.81,-46.75,0,*51
1483866209.57,5914,3.38,72602.3,-13.27,-46.97,-47.85,0,*5C
1483866210.78,5915,3.38,72590.8,-13.27,-47.17,-48.21,0,*55
1483866212.02,5916,3.38,72580.8,-13.29,-47.31,-48.21,0,*5C
1483866213.31,5917,3.38,72584.0,-13.29,-46.49,-47.37,0,*5B
1483866214.58,5918,3.38,72578.0,-13.29,-46.55,-47.45,0,*5C
1483866215.86,5919,3.38,72580.8,-13.29,-46.89,-47.71,0,*5B
1483866217.16,5920,3.38,72584.8,-13.33,-47.45,-48.35,0,*54
1483866218.44,5921,3.38,72582.0,-13.33,-48.13,-49.19,0,*56
1483866219.66,5922,3.38,72582.5,-13.35,-45.87,-46.83,0,*5F
1483866220.9,5923,3.38,72578.3,-13.37,-46.01,-46.83,0,*51
1483866222.14,5924,3.38,72578.5,-13.35,-45.53,-46.49,0,*56
1483866223.38,5925,3.38,72580.3,-13.35,-45.33,-46.27,0,*59
1483866224.61,5926,3.38,72580.5,-13.35,-45.33,-46.27,0,*5A
1483866225.86,5927,3.38,72582.3,-13.33,-44.87,-45.87,0,*5A
1483866227.12,5928,3.38,72594.5,-13.29,-45.41,-46.27,0,*5C
1483866228.39,5929,3.38,72592.0,-13.29,-45.07,-46.01,0,*5B
1483866229.66,5930,3.38,72596.8,-13.33,-45.67,-46.49,0,*52
1483866230.91,5931,3.38,72598.0,-13.29,-45.87,-46.69,0,*54
1483866232.15,5932,3.38,72604.8,-13.29,-45.87,-46.75,0,*5A
1483866233.41,5933,3.38,72602.5,-13.33,-46.07,-46.97,0,*57
1483866234.7,5934,3.38,72606.5,-13.29,-45.27,-46.41,0,*51
1483866235.96,5935,3.38,72608.8,-13.29,-46.49,-47.51,0,*5B
1483866237.22,5936,3.38,72606.0,-13.29,-46.41,-47.17,0,*52
1483866238.49,5937,3.38,72594.0,-13.33,-44.87,-45.73,0,*50
1483866239.74,5938,3.38,72580.8,-13.27,-45.07,-46.01,0,*55
1483866240.98,5939,3.38,72570.3,-13.27,-44.53,-45.47,0,*55
1483866242.22,5940,3.38,72568.8,-13.25,-44.99,-45.87,0,*53
1483866243.46,5941,3.38,72596.3,-13.25,-45.67,-46.75,0,*5C
1483866244.73,5942,3.38,72590.0,-13.27,-45.07,-45.81,0,*53
1483866245.99,5943,3.38,72580.8,-13.25,-46.01,-46.89,0,*5E
1483866247.22,5944,3.38,72592.0,-13.25,-46.21,-47.09,0,*52
1483866248.46,5945,3.38,72598.8,-13.27,-46.27,-47.17,0,*58
1483866249.7,5946,3.38,72596.3,-13.25,-45.67,-46.75,0,*5B
1483866250.91,5947,3.38,72592.0,-13.27,-45.87,-46.75,0,*56
1483866252.2,5948,3.38,72584.8,-13.25,-45.47,-46.27,0,*50
1483866253.48,5949,3.38,72584.5,-13.25,-45.81,-46.89,0,*5F
1483866254.74,5950,3.38,72586.0,-13.25,-46.49,-47.51,0,*54
1483866256.0,5951,3.38,72588.3,-13.25,-45.81,-46.55,0,*57
1483866257.3,5952,3.38,72590.3,-13.25,-45.27,-46.07,0,*5F
1483866258.59,5953,3.38,72594.5,-13.25,-45.47,-46.41,0,*5A
1483866259.87,5954,3.31,72596.0,-13.25,-45.47,-46.41,0,*5D
1483866261.12,5955,3.38,72592.3,-13.25,-44.79,-45.61,0,*51
1483866262.36,5956,3.38,72592.3,-13.25,-44.99,-45.87,0,*54
1483866263.59,5957,3.38,72588.0,-13.23,-46.61,-47.51,0,*5F
1483866264.81,5958,3.38,72588.5,-13.23,-45.53,-46.35,0,*51
1483866266.08,5959,3.38,72594.0,-13.25,-45.07,-45.87,0,*5D
1483866267.32,5960,3.38,72602.0,-13.23,-45.21,-46.15,0,*5D
1483866268.59,5961,3.38,72598.8,-13.23,-46.49,-47.45,0,*55
1483866269.82,5962,3.38,72598.3,-13.23,-46.21,-47.03,0,*5A
1483866271.08,5963,3.38,72602.3,-13.23,-46.61,-47.71,0,*5A
1483866272.31,5964,3.38,72588.8,-13.25,-46.75,-47.57,0,*5A
1483866273.57,5965,3.38,72588.5,-13.25,-46.27,-47.17,0,*58
1483866274.84,5966,3.38,72592.3,-13.25,-45.61,-46.49,0,*50
1483866276.13,5967,3.38,72596.8,-13.25,-45.47,-46.27,0,*5D
1483866277.38,5968,3.38,72590.5,-13.25,-45.81,-46.55,0,*5D
1483866278.64,5969,3.38,72594.3,-13.25,-45.87,-46.69,0,*55
1483866279.9,5970,3.38,72596.0,-13.25,-46.89,-47.99,0,*5E
1483866281.12,5971,3.38,72596.5,-13.27,-46.55,-47.51,0,*58
1483866282.36,5972,3.38,72598.8,-13.27,-46.49,-47.31,0,*50
1483866283.62,5973,3.38,72606.8,-13.25,-45.41,-46.27,0,*5E
1483866284.85,5974,3.38,72602.8,-13.25,-46.21,-47.17,0,*5E
1483866286.08,5975,3.38,72596.0,-13.25,-46.21,-47.09,0,*50
1483866287.34,5976,3.38,72594.3,-13.25,-45.41,-46.27,0,*5B
1483866288.63,5977,3.38,72596.5,-13.25,-46.49,-47.37,0,*51
1483866289.87,5978,3.38,72606.0,-13.25,-47.31,-48.21,0,*58
1483866291.09,5979,3.38,72602.0,-13.27,-47.09,-47.99,0,*5C
1483866292.33,5980,3.38,72596.5,-13.27,-45.61,-46.27,0,*52
1483866293.61,5981,3.38,72600.5,-13.27,-45.27,-46.07,0,*53
1483866294.91,5982,3.38,72594.0,-13.25,-45.27,-46.07,0,*52
1483866296.19,5983,3.38,72588.3,-13.25,-45.27,-46.01,0,*55
1483866297.46,5984,3.38,72586.5,-13.25,-45.21,-46.07,0,*52
1483866298.73,5985,3.38,72586.8,-13.25,-45.07,-45.87,0,*5C
1483866299.97,5986,3.38,72588.0,-13.25,-45.21,-45.87,0,*5B
1483866301.23,5987,3.38,72590.8,-13.25,-46.07,-46.97,0,*5F
1483866302.46,5988,3.38,72596.3,-13.23,-46.21,-47.03,0,*5E
1483866303.7,5989,3.38,72588.8,-13.23,-46.49,-47.31,0,*50
1483866304.94,5990,3.38,72584.0,-13.23,-46.01,-46.89,0,*56
1483866306.19,5991,3.38,72588.3,-13.23,-45.61,-46.49,0,*5E
1483866307.44,5992,3.38,72594.0,-13.23,-45.73,-46.49,0,*5E
1483866308.68,5993,3.38,72596.3,-13.25,-46.97,-47.99,0,*5C
1483866309.89,5994,3.38,72594.8,-13.27,-46.21,-47.09,0,*5D
1483866311.14,5995,3.38,72588.5,-13.27,-46.27,-47.31,0,*51
1483866312.4,5996,3.38,72592.8,-13.25,-46.27,-47.17,0,*54
1483866313.64,5997,3.38,72594.8,-13.27,-46.27,-47.09,0,*58
1483866314.88,5998,3.38,72594.8,-13.25,-45.87,-46.55,0,*54
1483866316.12,5999,3.38,72598.5,-13.27,-45.61,-46.49,0,*52
1483866317.35,6000,3.38,72600.3,-13.25,-45.41,-46.21,0,*56
1483866318.62,6001,3.38,72590.0,-13.25,-46.07,-46.97,0,*5B
1483866319.88,6002,3.38,72584.8,-13.25,-46.27,-47.09,0,*5C
1483866321.12,6003,3.38,72580.0,-13.23,-45.33,-46.15,0,*51
1483866322.35,6004,3.38,72588.8,-13.23,-46.01,-46.89,0,*51
1483866323.59,6005,3.38,72598.8,-13.23,-46.01,-46.89,0,*50
1483866324.84,6006,3.38,72594.8,-13.23,-46.83,-47.79,0,*57
1483866326.07,6007,3.38,72596.5,-13.23,-46.83,-47.93,0,*52
1483866327.32,6008,3.38,72598.0,-13.27,-46.27,-46.97,0,*52
1483866328.56,6009,3.38,72596.3,-13.27,-46.27,-47.17,0,*5A
1483866329.77,6010,3.38,72598.0,-13.27,-45.87,-46.75,0,*5E
1483866331.06,6011,3.38,72600.3,-13.25,-46.07,-46.89,0,*55
1483866332.32,6012,3.38,72600.0,-13.25,-46.07,-46.97,0,*59
1483866333.55,6013,3.38,72606.3,-13.25,-46.21,-46.97,0,*5C
1483866334.81,6014,3.38,72606.8,-13.25,-45.87,-46.69,0,*55
1483866336.08,6015,3.38,72600.0,-13.27,-45.47,-46.27,0,*50
1483866337.38,6016,3.38,72602.5,-13.25,-45.27,-46.07,0,*55
1483866338.63,6017,3.38,72600.8,-13.25,-44.79,-45.61,0,*5D
1483866339.88,6018,3.38,72596.3,-13.21,-44.87,-45.61,0,*57
1483866341.09,6019,3.38,72606.0,-13.23,-44.27,-45.13,0,*5B
1483866342.33,6020,3.38,72596.0,-13.21,-45.13,-45.95,0,*5B
1483866343.59,6021,3.38,72588.8,-13.21,-44.73,-45.53,0,*57
1483866344.86,6022,3.38,72602.3,-13.19,-45.07,-45.73,0,*5F
1483866346.09,6023,3.38,72598.3,-13.19,-44.47,-45.33,0,*5F
1483866347.33,6024,3.38,72598.3,-13.15,-44.61,-45.47,0,*53
1483866348.55,6025,3.38,72598.3,-13.15,-44.99,-45.87,0,*59
1483866349.79,6026,3.38,72596.8,-13.15,-45.07,-45.87,0,*5C
1483866351.06,6027,3.38,72596.8,-13.15,-44.73,-45.81,0,*59
1483866352.28,6028,3.38,72594.8,-13.15,-45.21,-45.87,0,*56
1483866353.5,6029,3.38,72602.0,-13.15,-45.21,-46.01,0,*5A
1483866354.72,6030,3.38,72596.0,-13.15,-46.01,-46.75,0,*50
1483866355.95,6031,3.38,72598.0,-13.15,-46.49,-47.57,0,*5C
1483866357.16,6032,3.38,72598.0,-13.15,-47.57,-48.49,0,*51
1483866358.37,6033,3.38,72598.5,-13.15,-46.21,-46.97,0,*5D
1483866359.59,6034,3.38,72594.5,-13.15,-45.21,-46.21,0,*54
1483866360.81,6035,3.38,72590.5,-13.15,-44.99,-45.87,0,*58
1483866362.05,6036,3.38,72592.3,-13.15,-44.79,-45.81,0,*53
1483866363.26,6037,3.38,72596.3,-13.15,-45.87,-46.75,0,*5A
1483866364.53,6038,3.38,72598.0,-13.15,-47.37,-48.27,0,*55
1483866365.74,6039,3.38,72606.8,-13.15,-47.17,-48.21,0,*50
1483866366.95,6040,3.38,72596.0,-13.19,-46.75,-47.57,0,*59
1483866368.15,6041,3.38,72596.8,-13.19,-45.87,-46.97,0,*5B
1483866369.41,6042,3.38,72598.3,-13.19,-46.41,-47.37,0,*5A
1483866370.64,6043,3.38,72592.5,-13.19,-47.17,-47.93,0,*57
1483866371.88,6044,3.38,72592.5,-13.19,-47.17,-48.13,0,*57
1483866373.09,6045,3.38,72592.5,-13.23,-47.09,-47.99,0,*5D
1483866374.36,6046,3.38,72594.3,-13.23,-47.03,-47.79,0,*5A
1483866375.59,6047,3.38,72598.8,-13.23,-46.61,-47.51,0,*54
1483866376.85,6048,3.38,72592.5,-13.21,-45.61,-46.61,0,*58
1483866378.08,6049,3.38,72594.8,-13.21,-45.33,-46.35,0,*5F
1483866379.35,6050,3.38,72596.8,-13.21,-45.21,-46.15,0,*56
1483866380.61,6051,3.38,72598.3,-13.21,-45.53,-46.41,0,*53
1483866381.87,6052,3.38,72600.8,-13.21,-45.33,-46.15,0,*57
1483866383.12,6053,3.38,72604.8,-13.15,-45.27,-46.21,0,*53
1483866384.36,6054,3.38,72600.0,-13.19,-45.87,-46.89,0,*50
1483866385.6,6055,3.38,72596.0,-13.19,-45.53,-46.27,0,*5C
1483866386.82,6056,3.38,72596.0,-13.19,-45.53,-46.35,0,*5C
1483866388.06,6057,3.38,72596.8,-13.19,-45.07,-45.87,0,*56
1483866389.32,6058,3.38,72598.8,-13.19,-45.07,-45.73,0,*52
1483866390.55,6059,3.38,72602.8,-13.15,-44.87,-45.61,0,*55
1483866391.77,6060,3.38,72606.5,-13.15,-44.87,-45.61,0,*5F
1483866392.99,6061,3.38,72598.8,-13.15,-45.21,-46.21,0,*54
1483866394.26,6062,3.38,72596.5,-13.13,-45.41,-46.27,0,*51
1483866395.46,6063,3.38,72596.5,-13.15,-45.87,-46.75,0,*5B
1483866396.74,6064,3.38,72598.8,-13.13,-45.21,-46.07,0,*53
1483866397.95,6065,3.38,72596.8,-13.15,-45.61,-46.55,0,*57
1483866399.17,6066,3.38,72596.8,-13.15,-47.09,-48.21,0,*55
1483866400.43,6067,3.38,72602.8,-13.15,-47.79,-48.91,0,*58
1483866401.69,6068,3.38,72592.8,-13.19,-47.37,-48.35,0,*5F
1483866402.96,6069,3.38,72588.8,-13.19,-47.45,-48.35,0,*5B
1483866404.2,6070,3.38,72588.8,-13.21,-47.65,-48.55,0,*5C
1483866405.46,6071,3.38,72596.0,-13.21,-47.79,-48.83,0,*5B
1483866406.72,6072,3.38,72598.5,-13.21,-46.41,-47.31,0,*54
1483866407.93,6073,3.38,72598.0,-13.23,-45.95,-46.83,0,*55
1483866409.17,6074,3.38,72602.8,-13.23,-46.41,-47.31,0,*50
1483866410.41,6075,3.38,72606.3,-13.23,-46.89,-47.85,0,*5A
1483866411.65,6076,3.38,72610.3,-13.25,-47.17,-48.07,0,*5C
1483866412.9,6077,3.38,72606.5,-13.23,-45.73,-46.69,0,*5D
1483866414.16,6078,3.38,72604.5,-13.25,-46.27,-47.09,0,*51
1483866415.45,6079,3.38,72606.0,-13.25,-46.89,-47.71,0,*5B
1483866416.68,6080,3.38,72610.5,-13.27,-46.97,-47.85,0,*5B
1483866417.93,6081,3.38,72604.3,-13.25,-46.69,-47.57,0,*56
1483866419.19,6082,3.38,72598.5,-13.25,-45.67,-46.69,0,*54
1483866420.45,6083,3.38,72596.8,-13.25,-46.27,-47.17,0,*5A
1483866421.69,6084,3.38,72598.3,-13.23,-46.61,-47.31,0,*5D
1483866422.93,6085,3.38,72598.0,-13.27,-45.67,-46.49,0,*53
1483866424.19,6086,3.38,72596.0,-13.25,-45.41,-46.27,0,*5E
1483866425.49,6087,3.38,72598.0,-13.25,-45.27,-46.07,0,*5D
1483866426.73,6088,3.38,72600.3,-13.23,-46.01,-46.69,0,*5B
1483866427.97,6089,3.38,72606.3,-13.23,-46.49,-47.31,0,*5A
1483866429.25,6090,3.38,72602.0,-13.21,-45.81,-46.69,0,*5B
1483866430.51,6091,3.38,72602.0,-13.23,-46.15,-47.03,0,*5B
1483866431.72,6092,3.38,72600.0,-13.23,-45.41,-46.35,0,*5E
1483866432.96,6093,3.38,72600.8,-13.21,-44.99,-45.95,0,*50
1483866434.23,6094,3.38,72610.0,-13.21,-44.87,-45.73,0,*50
1483866435.48,6095,3.38,72606.0,-13.21,-44.99,-46.01,0,*58
1483866436.71,6096,3.38,72606.0,-13.21,-45.41,-46.21,0,*5D
1483866437.94,6097,3.38,72600.0,-13.21,-45.41,-46.21,0,*5C
1483866439.22,6098,3.38,72602.3,-13.21,-45.81,-46.41,0,*59
1483866440.44,6099,3.38,72606.3,-13.15,-44.61,-45.61,0,*51
1483866441.68,6100,3.38,72596.8,-13.19,-44.47,-45.33,0,*5F
1483866442.89,6101,3.38,72596.0,-13.19,-45.53,-46.35,0,*5F
1483866444.12,6102,3.38,72600.3,-13.15,-45.21,-46.01,0,*52
1483866445.36,6103,3.38,72596.5,-13.15,-44.99,-45.81,0,*5A
1483866446.65,6104,3.38,72596.3,-13.13,-45.47,-46.49,0,*5E
1483866447.89,6105,3.38,72598.0,-13.15,-46.07,-46.97,0,*5D
1483866449.1,6106,3.38,72602.3,-13.15,-46.21,-47.09,0,*5C
1483866450.34,6107,3.38,72600.0,-13.15,-46.07,-46.97,0,*5F
1483866451.57,6108,3.38,72604.0,-13.15,-46.07,-46.97,0,*50
1483866452.78,6109,3.38,72602.5,-13.15,-45.87,-46.75,0,*56
1483866454.0,6110,3.38,72600.5,-13.15,-45.21,-45.87,0,*5C
1483866455.24,6111,3.38,72596.8,-13.15,-44.99,-45.81,0,*59
1483866456.49,6112,3.38,72594.3,-13.15,-44.87,-45.81,0,*55
1483866457.74,6113,3.38,72596.8,-13.15,-44.73,-45.61,0,*51
1483866458.98,6114,3.38,72602.5,-13.13,-44.61,-45.41,0,*51
1483866460.25,6115,3.38,72600.3,-13.13,-44.99,-45.81,0,*5B
1483866461.49,6116,3.38,72600.8,-13.11,-44.67,-45.33,0,*52
1483866462.7,6117,3.38,72600.3,-13.11,-44.27,-45.13,0,*55
1483866463.94,6118,3.38,72596.3,-13.11,-44.33,-45.33,0,*5D
1483866465.16,6119,3.38,72590.3,-13.07,-45.53,-46.35,0,*59
1483866466.39,6120,3.38,72600.3,-13.07,-45.33,-46.15,0,*57
1483866467.62,6121,3.38,72602.5,-13.07,-44.67,-45.33,0,*51
1483866468.89,6122,3.38,72602.8,-13.03,-44.21,-45.07,0,*53
1483866470.12,6123,3.38,72600.5,-13.01,-44.61,-45.41,0,*56
1483866471.36,6124,3.38,72606.3,-13.03,-45.67,-46.69,0,*5D
1483866472.57,6125,3.38,72594.8,-13.03,-46.35,-47.17,0,*50
1483866473.86,6126,3.38,72596.0,-13.01,-45.47,-46.27,0,*55
1483866475.09,6127,3.38,72604.0,-13.01,-46.01,-46.97,0,*5E
1483866476.35,6128,3.38,72606.0,-13.03,-45.81,-46.69,0,*59
1483866477.59,6129,3.38,72596.8,-13.03,-44.79,-45.47,0,*51
1483866478.84,6130,3.38,72586.5,-13.03,-45.21,-46.07,0,*52
1483866480.1,6131,3.38,72586.3,-13.01,-45.47,-46.35,0,*50
1483866481.37,6132,3.38,72588.3,-13.01,-45.07,-45.87,0,*5D
1483866482.58,6133,3.38,72588.5,-13.03,-44.61,-45.41,0,*55
1483866483.86,6134,3.38,72586.3,-13.01,-44.33,-45.07,0,*55
1483866485.13,6135,3.38,72596.5,-13.01,-44.79,-45.81,0,*54
1483866486.4,6136,3.38,72604.0,-12.99,-44.67,-45.61,0,*56
1483866487.63,6137,3.38,72606.0,-12.99,-44.61,-45.41,0,*53
1483866488.88,6138,3.38,72594.5,-12.97,-44.73,-45.61,0,*53
1483866490.15,6139,3.38,72588.0,-12.99,-45.21,-46.07,0,*59
1483866491.37,6140,3.38,72600.5,-12.97,-44.99,-45.95,0,*53
1483866492.59,6141,3.38,72598.0,-12.97,-44.79,-45.41,0,*55
1483866493.84,6142,3.38,72610.8,-12.95,-44.27,-45.33,0,*5A
1483866495.12,6143,3.38,72608.5,-12.95,-45.53,-46.49,0,*57
1483866496.37,6144,3.38,72610.0,-12.95,-45.21,-46.01,0,*59
1483866497.64,6145,3.38,72608.3,-12.91,-44.73,-45.53,0,*5E
1483866498.91,6146,3.38,72606.0,-12.91,-44.73,-45.67,0,*5A
1483866500.17,6147,3.38,72602.0,-12.91,-44.73,-45.67,0,*5B
1483866501.44,6148,3.38,72604.0,-12.91,-44.73,-45.53,0,*53
1483866502.71,6149,3.38,72600.0,-12.91,-44.87,-45.73,0,*5B
1483866503.94,6150,3.38,72608.3,-12.91,-46.21,-47.17,0,*5D
1483866505.18,6151,3.38,72604.3,-12.91,-46.75,-47.85,0,*56
1483866506.47,6152,3.38,72594.5,-12.95,-46.41,-47.37,0,*5F
1483866507.73,6153,3.38,72598.8,-12.91,-45.53,-46.61,0,*58